• In Belarus
  • List of Countries
  • For 7 days
  • Water Temperature
  • Weather Map
  • Weather Widgets
  • user-avatar
    Login

    Hourly Weather Franceville

    Today, 22 August, Thursday

    Time Temperature Precipitation Wind Pressure Humidity
    00:00 +26°C° 0.9 mm 1 mps 733 mmHg 86%
    01:00 +25°C° 0 mm 1 mps 732 mmHg 88%
    02:00 +25°C° 0.3 mm 1 mps 732 mmHg 89%
    03:00 +25°C° 0.3 mm 1 mps 732 mmHg 90%
    04:00 +24°C° 0.3 mm 1 mps 732 mmHg 91%
    05:00 +24°C° 0.2 mm 1 mps 732 mmHg 90%
    06:00 +24°C° 0.2 mm 1 mps 733 mmHg 89%
    07:00 +25°C° 0 mm 1 mps 733 mmHg 88%
    08:00 +27°C° 0 mm 1 mps 733 mmHg 77%
    09:00 +30°C° 0 mm 1 mps 733 mmHg 66%
    10:00 +32°C° 0 mm 1 mps 733 mmHg 55%
    11:00 +31°C° 0.2 mm 0 mps 733 mmHg 53%
    12:00 +32°C° 0.2 mm 0 mps 732 mmHg 50%
    13:00 +33°C° 0.2 mm 0 mps 732 mmHg 48%
    14:00 +32°C° 0.1 mm 0 mps 731 mmHg 47%
    15:00 +32°C° 0.1 mm 0 mps 730 mmHg 46%
    16:00 +34°C° 0.1 mm 1 mps 729 mmHg 46%
    17:00 +33°C° 0.1 mm 1 mps 730 mmHg 52%
    18:00 +31°C° 0.1 mm 1 mps 730 mmHg 58%
    19:00 +29°C° 0.1 mm 1 mps 731 mmHg 64%
    20:00 +29°C° 0.2 mm 1 mps 731 mmHg 69%
    21:00 +28°C° 0.2 mm 1 mps 732 mmHg 74%
    22:00 +25°C° 0.2 mm 0 mps 732 mmHg 78%
    23:00 +25°C° 0.1 mm 0 mps 732 mmHg 80%

    Tomorrow, 23 August, Friday

    Time Temperature Precipitation Wind Pressure Humidity
    00:00 +24°C° 0.1 mm 0 mps 732 mmHg 81%
    01:00 +24°C° 0.1 mm 0 mps 732 mmHg 83%
    02:00 +24°C° 0 mm 0 mps 732 mmHg 84%
    03:00 +25°C° 0 mm 1 mps 731 mmHg 86%
    04:00 +25°C° 0 mm 1 mps 731 mmHg 88%
    05:00 +25°C° 0.1 mm 1 mps 732 mmHg 88%
    06:00 +25°C° 0.1 mm 1 mps 733 mmHg 87%
    07:00 +25°C° 0.1 mm 2 mps 733 mmHg 87%
    08:00 +26°C° 0 mm 2 mps 734 mmHg 81%
    09:00 +27°C° 0 mm 2 mps 734 mmHg 76%
    10:00 +28°C° 0 mm 2 mps 734 mmHg 70%
    11:00 +29°C° 0 mm 2 mps 733 mmHg 67%
    12:00 +29°C° 0 mm 2 mps 733 mmHg 63%
    13:00 +30°C° 0 mm 2 mps 732 mmHg 60%
    14:00 +31°C° 0 mm 2 mps 731 mmHg 58%
    15:00 +31°C° 0 mm 2 mps 731 mmHg 56%
    16:00 +32°C° 0 mm 2 mps 730 mmHg 54%
    17:00 +30°C° 0.2 mm 2 mps 731 mmHg 60%
    18:00 +29°C° 0.2 mm 1 mps 731 mmHg 66%
    19:00 +27°C° 0.2 mm 1 mps 732 mmHg 72%
    20:00 +27°C° 0 mm 1 mps 732 mmHg 74%
    21:00 +26°C° 0 mm 1 mps 733 mmHg 76%
    22:00 +26°C° 0 mm 1 mps 733 mmHg 77%
    23:00 +26°C° 0 mm 1 mps 733 mmHg 78%

    Day after tomorrow, 24 August, Saturday

    Time Temperature Precipitation Wind Pressure Humidity
    00:00 +25°C° 0 mm 1 mps 733 mmHg 80%
    01:00 +25°C° 0 mm 1 mps 733 mmHg 81%
    02:00 +24°C° 0 mm 1 mps 733 mmHg 83%
    03:00 +22°C° 0 mm 0 mps 732 mmHg 86%
    04:00 +22°C° 0 mm 0 mps 732 mmHg 88%
    05:00 +22°C° 0 mm 0 mps 733 mmHg 87%
    06:00 +22°C° 0 mm 0 mps 733 mmHg 86%
    07:00 +22°C° 0 mm 0 mps 734 mmHg 85%
    08:00 +26°C° 0 mm 1 mps 734 mmHg 77%
    09:00 +27°C° 0 mm 1 mps 734 mmHg 70%
    10:00 +29°C° 0 mm 1 mps 734 mmHg 62%
    11:00 +30°C° 0 mm 1 mps 734 mmHg 56%
    12:00 +32°C° 0 mm 1 mps 733 mmHg 49%
    13:00 +35°C° 0 mm 2 mps 732 mmHg 42%
    14:00 +35°C° 0 mm 2 mps 732 mmHg 43%
    15:00 +34°C° 0 mm 2 mps 731 mmHg 44%
    16:00 +34°C° 0 mm 2 mps 730 mmHg 45%
    17:00 +31°C° 0.7 mm 2 mps 731 mmHg 55%
    18:00 +29°C° 0.7 mm 2 mps 731 mmHg 65%
    19:00 +27°C° 0.7 mm 2 mps 732 mmHg 74%
    20:00 +27°C° 0.9 mm 2 mps 732 mmHg 77%
    21:00 +26°C° 0.9 mm 1 mps 733 mmHg 79%
    22:00 +26°C° 0.9 mm 1 mps 733 mmHg 81%
    23:00 +25°C° 0.2 mm 1 mps 733 mmHg 82%

    25 August, Sunday

    Time Temperature Precipitation Wind Pressure Humidity
    00:00 +25°C° 0.2 mm 1 mps 733 mmHg 83%
    01:00 +25°C° 0.2 mm 1 mps 733 mmHg 84%
    02:00 +25°C° 0 mm 1 mps 733 mmHg 86%
    03:00 +24°C° 0 mm 1 mps 733 mmHg 88%
    04:00 +24°C° 0 mm 1 mps 732 mmHg 90%
    05:00 +24°C° 0 mm 1 mps 733 mmHg 90%
    06:00 +24°C° 0 mm 1 mps 733 mmHg 89%
    07:00 +24°C° 0 mm 1 mps 733 mmHg 89%
    08:00 +24°C° 0 mm 1 mps 734 mmHg 87%
    09:00 +25°C° 0 mm 1 mps 734 mmHg 86%
    10:00 +25°C° 0 mm 1 mps 734 mmHg 84%
    11:00 +26°C° 0 mm 2 mps 734 mmHg 79%
    12:00 +27°C° 0 mm 2 mps 733 mmHg 73%
    13:00 +28°C° 0 mm 2 mps 732 mmHg 68%
    14:00 +28°C° 0 mm 2 mps 732 mmHg 66%
    15:00 +28°C° 0 mm 2 mps 731 mmHg 64%
    16:00 +29°C° 0 mm 2 mps 731 mmHg 63%
    17:00 +28°C° 0 mm 2 mps 731 mmHg 67%
    18:00 +27°C° 0 mm 2 mps 731 mmHg 72%
    19:00 +26°C° 0 mm 1 mps 732 mmHg 76%
    20:00 +26°C° 0 mm 1 mps 732 mmHg 78%
    21:00 +25°C° 0 mm 1 mps 733 mmHg 80%
    22:00 +25°C° 0 mm 1 mps 734 mmHg 81%
    23:00 +25°C° 0 mm 1 mps 733 mmHg 82%

    26 August, Monday

    Time Temperature Precipitation Wind Pressure Humidity
    00:00 +24°C° 0 mm 1 mps 733 mmHg 83%
    01:00 +24°C° 0 mm 1 mps 733 mmHg 84%
    02:00 +24°C° 0 mm 1 mps 733 mmHg 85%
    03:00 +22°C° 0 mm 0 mps 733 mmHg 87%
    04:00 +21°C° 0 mm 0 mps 733 mmHg 88%
    05:00 +22°C° 0 mm 0 mps 733 mmHg 87%
    06:00 +22°C° 0 mm 0 mps 734 mmHg 85%
    07:00 +22°C° 0 mm 0 mps 734 mmHg 83%
    08:00 +23°C° 0 mm 0 mps 734 mmHg 79%
    09:00 +24°C° 0 mm 0 mps 735 mmHg 75%
    10:00 +25°C° 0 mm 0 mps 735 mmHg 71%
    11:00 +25°C° 0 mm 0 mps 734 mmHg 68%
    12:00 +28°C° 0 mm 1 mps 734 mmHg 66%
    13:00 +29°C° 0 mm 1 mps 733 mmHg 63%
    14:00 +29°C° 0 mm 1 mps 732 mmHg 61%
    15:00 +29°C° 0 mm 1 mps 732 mmHg 60%
    16:00 +29°C° 0 mm 2 mps 732 mmHg 58%
    17:00 +28°C° 0 mm 1 mps 732 mmHg 63%
    18:00 +27°C° 0 mm 1 mps 732 mmHg 67%
    19:00 +26°C° 0 mm 1 mps 733 mmHg 72%
    20:00 +24°C° 0 mm 0 mps 733 mmHg 73%
    21:00 +24°C° 0 mm 0 mps 734 mmHg 75%
    22:00 +23°C° 0 mm 0 mps 734 mmHg 76%
    23:00 +23°C° 0 mm 0 mps 734 mmHg 77%

    27 August, Tuesday

    Time Temperature Precipitation Wind Pressure Humidity
    00:00 +23°C° 0 mm 0 mps 733 mmHg 77%
    01:00 +23°C° 0 mm 0 mps 733 mmHg 78%
    02:00 +23°C° 0 mm 0 mps 733 mmHg 80%
    03:00 +22°C° 0 mm 0 mps 733 mmHg 81%
    04:00 +24°C° 0 mm 1 mps 733 mmHg 83%
    05:00 +22°C° 0 mm 0 mps 733 mmHg 81%
    06:00 +22°C° 0 mm 0 mps 734 mmHg 80%
    07:00 +23°C° 0 mm 0 mps 734 mmHg 78%
    08:00 +25°C° 0 mm 0 mps 734 mmHg 71%
    09:00 +28°C° 0 mm 1 mps 734 mmHg 63%
    10:00 +30°C° 0 mm 1 mps 735 mmHg 56%
    11:00 +32°C° 0 mm 1 mps 734 mmHg 49%
    12:00 +35°C° 0 mm 1 mps 733 mmHg 43%
    13:00 +37°C° 0 mm 1 mps 733 mmHg 37%
    14:00 +36°C° 0 mm 1 mps 732 mmHg 38%
    15:00 +35°C° 0 mm 1 mps 731 mmHg 39%
    16:00 +34°C° 0 mm 1 mps 731 mmHg 40%
    17:00 +33°C° 0 mm 1 mps 731 mmHg 45%
    18:00 +32°C° 0 mm 1 mps 731 mmHg 50%
    19:00 +30°C° 0 mm 1 mps 731 mmHg 55%
    20:00 +29°C° 0.3 mm 1 mps 732 mmHg 62%
    21:00 +28°C° 0.3 mm 1 mps 732 mmHg 68%
    22:00 +27°C° 0.3 mm 1 mps 733 mmHg 74%
    23:00 +27°C° 0.4 mm 1 mps 733 mmHg 78%
    Show more